METAR EVRA 121150Z 14009KT 110V170 9999 SCT011 BKN034 OVC049 05/04 Q1015 R18/190095 NOSIG =

ATC Feedback

Controllers Online

PositionControllerOnline
No controllers currently online

Booked ATC Today

No ATC booked yet.
Be the first for today!
* Times are UTC

The time is now

UTC: 

Local: 

Latvia vACC on twitter